SCP
0 0 0 0 0 1 1 1 1 1 1 1 1 1 0 0 0 0 0 0 0 0 0 0 0 0 0 0 0 0 0 0 0 0 0 0 0 0 0 0 0 0 0
0 0 0 0 0 0 1 1 1 1 1 1 1 0 0 0 0 0 0 0 0 0 0 0 0 0 0 0 0 0 0 0 0 0 0 0 0 0 0 0 0 0 0
0 0 0 0 0 0 0 0 0 0 0 0 0 0 0 0 0 0 0 0 0 0 0 0 0 0 0 0 0 0 0 0 0 0 0 0 0 0 0 0 0 0 0
0 0 0 0 0 0 0 0 0 0 0 0 0 0 0 0 0 0 0 0 0 0 0 0 0 0 0 0 0 0 0 0 0 0 0 0 0 0 0 0 0 0 0
0 0 0 0 0 0 0 0 0 0 0 0 0 0 0 0 0 0 0 0 0 0 0 0 0 0 0 0 0 0 0 0 0 0 0 0 0 -0 0 0 0 0 0
0 0 0 0 0 0 0 0 0 0 0 0 0 0 0 0 0 0 0 0 0 0 0 0 0 0 0 0 0 0 0 0 0 0 0 0 0 -0 -0 0 0 0 0
0 0 0 0 0 0 0 0 0 0 0 0 0 0 0 0 0 0 0 0 0 0 0 0 0 0 0 0 0 0 0 0 0 0 0 0 0 0 0 0 0 0 0
0 0 0 0 0 0 0 0 0 0 0 0 0 0 0 0 0 0 0 0 0 0 0 0 0 0 0 0 0 0 0 0 0 0 0 0 0 0 0 0 0 0 0
0 0 0 0 0 0 0 0 0 0 0 0 0 0 0 0 0 0 0 0 0 0 0 0 0 0 0 0 0 0 0 0 0 0 0 0 0 0 0 0 0 0 0
0 0 0 0 0 0 0 0 0 0 0 0 0 0 0 0 0 0 0 0 0 0 0 0 0 0 0 0 0 0 0 0 0 0 0 0 0 0 0 0 0 0 0
0 0 0 0 0 0 0 0 0 0 0 0 0 0 0 0 0 0 0 0 0 0 0 0 0 0 0 0 0 0 0 0 0 0 0 0 0 0 0 0 0 0 0
0 0 0 0 0 0 0 0 0 0 0 0 0 0 0 0 0 0 0 0 0 0 0 0 0 0 0 0 0 0 0 0 0 0 0 0 0 0 0 0 0 0 0
0 0 0 0 0 0 0 0 0 0 0 0 0 0 0 0 0 0 0 0 0 0 0 0 0 0 0 0 0 0 0 0 0 0 0 0 0 0 0 0 0 0 0
0 0 0 0 0 0 0 0 0 0 0 0 0 0 0 0 0 0 0 0 0 0 0 0 0 0 0 0 0 0 0 0 0 0 0 0 0 0 0 0 0 0 0
0 0 0 0 0 0 0 0 0 0 0 0 0 0 0 0 0 0 0 0 0 0 0 0 0 0 0 0 0 0 0 0 0 0 0 0 0 0 0 0 0 0 0
0 0 0 0 0 0 0 0 0 0 0 0 0 0 0 0 0 0 0 0 0 0 0 0 0 0 0 0 0 0 0 0 0 0 0 0 0 0 0 0 0 0 0
0 0 0 0 0 0 0 0 0 0 0 0 0 0 0 0 0 0 0 0 0 0 0 0 0 0 0 0 0 0 0 0 0 0 0 0 0 0 0 0 0 0 0
0 0 0 0 0 0 0 0 0 0 0 0 0 0 0 0 0 0 0 0 0 0 0 0 0 0 0 0 0 0 0 0 0 0 0 0 0 0 0 0 0 0 0
0 0 0 0 0 0 0 0 0 0 0 0 0 0 0 0 0 0 0 0 0 0 0 0 0 0 0 0 0 0 0 0 0 0 0 0 0 0 0 0 0 0 0
0 0 0 0 0 0 0 0 0 0 0 0 0 0 0 0 0 0 0 0 0 0 0 0 0 0 0 0 0 0 0 0 0 0 0 0 0 0 0 0 0 0 0
0 0 0 0 0 0 0 0 0 0 0 0 0 0 0 0 0 0 0 0 0 0 0 0 0 0 0 0 0 0 0 0 0 0 0 0 0 0 0 0 0 0 0
0 0 0 0 0 0 0 0 0 0 0 0 0 0 0 0 0 0 0 0 0 0 0 0 0 0 0 0 0 0 0 0 0 0 0 0 0 0 0 0 0 0 0
0 0 0 0 0 0 0 0 0 0 0 0 0 0 0 0 0 0 0 0 0 0 0 0 0 0 0 0 0 0 0 0 0 0 0 0 0 0 0 0 0 0 0
0 0 0 0 0 0 0 0 0 0 0 0 0 0 0 0 0 0 0 0 0 0 0 0 0 0 0 0 0 0 0 0 0 0 0 0 0 0 0 0 0 0 0
0 0 0 0 0 0 0 0 0 0 0 0 0 0 0 0 0 0 0 0 0 0 0 0 0 0 0 0 0 0 0 0 0 0 0 0 0 0 0 0 0 0 0
0 0 0 0 0 0 0 0 0 0 0 0 0 0 0 0 0 0 0 0 0 0 0 0 0 0 0 0 0 0 0 0 0 0 0 0 0 0 0 0 0 0 0
Wind_Speed
2 2 2 2 2 2 3 3 4 4 4 3 3 3 3 2 2 2 3 3 3 3 4 3 3 3 3 3 4 4 6 4 3 3 3 2 3 3 2 2 2 3 3
3 3 3 2 1 1 2 4 3 4 4 3 3 3 3 3 2 2 2 3 3 3 3 4 3 3 3 3 4 4 4 3 2 3 3 2 1 2 2 2 2 2 2
2 3 3 3 2 1 1 1 4 3 4 4 3 3 3 2 2 2 2 2 3 3 3 4 4 4 3 3 3 4 4 4 2 1 3 3 3 1 1 1 2 2 2
2 2 3 3 3 2 1 0 2 4 4 4 5 6 4 3 2 2 2 2 3 3 4 4 3 3 3 4 3 3 2 4 3 1 1 2 3 3 2 0 1 1 2
4 4 4 3 4 3 2 1 1 2 3 4 5 6 4 3 3 3 3 2 2 3 4 4 4 3 3 4 4 3 2 2 3 2 1 1 1 2 3 2 1 0 0
6 5 5 4 4 4 3 2 0 1 2 4 4 5 5 5 5 4 4 3 2 2 3 4 4 4 3 4 4 4 4 2 3 2 2 2 2 2 2 2 2 1 0
5 6 7 6 5 5 4 3 1 1 2 4 4 5 5 6 6 5 5 4 3 2 3 3 3 3 3 3 4 3 3 3 3 3 2 2 1 2 2 2 1 1 0
7 6 6 6 5 5 5 4 3 1 1 3 4 4 5 4 4 4 4 5 3 3 4 4 3 4 4 4 4 3 3 3 2 2 2 2 1 2 2 2 3 1 0
8 7 7 6 6 5 5 4 3 2 1 1 2 3 3 4 4 4 3 4 4 4 4 4 4 4 4 4 4 3 3 3 3 3 2 2 2 2 1 2 3 4 2
9 8 6 6 6 5 5 5 3 2 2 1 1 1 2 3 3 4 4 4 4 4 5 5 4 4 4 4 4 3 3 3 3 2 3 2 2 2 2 2 2 2 3
8 7 7 6 5 5 5 5 4 3 2 1 1 2 2 2 3 3 4 4 4 5 5 5 5 5 5 5 4 4 4 4 3 3 3 3 3 2 2 2 2 2 2
7 7 7 7 6 6 6 5 4 3 2 2 1 1 2 2 2 3 3 4 4 4 5 5 5 5 5 5 5 5 5 5 4 4 4 4 3 3 2 2 2 2 3
8 7 7 7 6 6 6 6 5 4 3 2 1 0 1 1 1 2 2 3 3 3 4 5 5 5 5 5 5 5 5 5 5 4 5 4 4 3 3 3 3 2 2
8 8 8 7 7 6 6 6 5 4 3 2 1 1 2 2 2 1 2 2 3 3 4 4 5 5 5 4 5 5 5 5 4 4 4 4 4 4 4 3 3 3 3
9 9 9 8 8 7 6 6 5 4 3 2 1 1 1 1 2 2 2 2 3 3 3 4 4 4 4 4 5 5 5 4 4 3 3 3 4 4 4 3 3 3 3
9 10 10 10 9 9 8 7 6 4 3 2 1 1 0 1 1 2 2 2 2 3 3 4 4 4 3 5 6 5 4 4 4 4 3 3 4 5 5 4 4 4 4
9 10 10 9 9 9 8 8 7 5 3 3 1 0 0 1 1 1 1 2 2 2 2 3 3 3 3 5 6 6 4 4 4 4 4 3 3 4 4 4 3 2 2
10 10 9 9 9 8 8 7 6 4 3 3 2 1 1 1 1 1 1 1 1 2 3 3 3 3 3 5 5 6 4 4 4 4 4 4 4 4 5 4 3 2 1
9 9 9 9 9 8 8 7 5 4 4 3 3 2 1 1 1 1 1 1 1 1 2 3 3 3 3 4 5 5 4 3 3 3 3 4 4 6 7 6 5 3 2
8 8 8 9 9 9 8 6 5 5 5 5 4 3 2 1 2 2 1 1 1 2 2 2 2 3 3 5 5 5 3 3 3 2 2 4 5 7 7 6 6 5 3
9 8 8 8 8 8 6 5 5 5 6 5 4 3 2 2 2 1 1 1 1 2 2 3 2 2 3 5 6 5 3 4 4 3 2 2 5 6 6 5 4 5 4
9 8 7 8 8 7 5 5 5 6 5 5 4 4 2 2 1 0 1 1 2 2 2 2 2 1 2 2 4 5 4 4 4 3 3 3 5 5 5 4 5 6 4
8 7 7 8 7 6 5 5 6 6 5 5 4 4 3 2 1 0 0 1 1 2 2 2 2 1 1 2 3 4 4 3 2 3 5 5 5 5 3 4 5 4 3
8 7 7 7 7 7 6 5 5 5 5 4 4 4 3 2 2 1 0 1 1 1 2 2 2 2 1 1 2 2 3 4 3 3 5 5 4 3 3 3 2 2 2
7 7 6 6 7 7 7 6 6 5 5 4 4 4 3 2 2 2 1 1 1 1 1 2 2 2 2 2 3 3 3 3 4 4 3 2 2 2 2 2 2 1 2
6 6 6 6 7 7 7 6 6 5 4 4 4 3 3 2 2 1 2 4 2 2 2 1 1 1 1 3 3 4 4 5 6 4 3 3 3 3 3 3 2 2 2
Wind_Direction
324 351 5 9 46 112 135 146 153 156 148 147 148 144 147 137 126 123 125 127 138 140 133 134 134 128 132 144 139 128 124 119 118 103 87 53 57 74 75 70 83 90 94
349 351 355 7 28 55 120 153 156 163 160 157 157 151 148 145 131 121 132 138 144 140 138 139 143 139 134 128 129 130 130 137 144 136 131 120 47 31 52 63 73 80 87
336 338 341 342 350 5 90 152 169 166 166 152 140 128 118 115 119 131 141 149 144 146 145 146 143 145 140 141 141 142 142 154 168 134 138 145 168 142 36 67 81 83 75
357 349 336 331 325 320 355 120 170 167 165 160 155 151 151 152 154 157 152 155 146 149 148 149 146 146 144 145 151 143 146 150 158 152 86 114 129 137 139 354 40 87 87
4 1 349 333 338 339 350 354 124 170 170 167 164 159 158 152 140 142 147 154 155 154 155 154 150 151 152 151 148 142 148 155 156 154 138 106 83 107 133 166 194 2 25
4 3 356 354 352 349 350 349 152 175 178 170 168 166 162 153 148 150 159 162 160 161 159 155 153 156 157 158 153 155 166 169 160 152 146 145 144 162 142 159 174 180 229
4 359 359 357 354 354 343 338 324 215 191 183 176 175 170 165 163 164 166 162 163 167 173 166 163 159 160 159 153 154 164 168 165 164 161 155 153 141 134 131 148 147 184
3 358 354 352 351 351 350 340 336 329 233 198 189 178 173 170 170 169 168 170 173 174 172 169 166 163 158 155 156 152 162 161 164 166 158 141 141 125 136 144 144 136 274
360 353 351 352 353 348 347 337 330 335 323 246 202 185 181 177 171 170 172 171 166 165 165 167 167 167 163 160 157 157 166 162 166 168 162 155 152 144 148 145 153 153 177
354 350 349 347 345 341 342 343 328 318 302 274 205 193 192 188 178 173 177 175 172 166 166 171 172 173 170 165 161 160 166 166 171 165 168 172 168 163 157 163 171 161 165
347 347 346 341 342 343 344 344 331 333 324 297 230 187 198 196 188 181 180 181 176 173 175 175 176 177 175 170 166 169 168 173 176 175 175 184 173 169 172 170 173 173 154
352 353 351 346 348 346 346 344 337 329 320 306 282 197 188 185 188 184 181 182 183 182 181 176 178 178 175 173 172 176 176 178 182 185 182 190 175 172 173 174 183 182 173
356 356 353 350 348 345 342 342 337 334 329 321 302 181 175 180 187 191 185 180 183 186 185 178 182 183 182 182 181 179 180 182 185 184 185 187 175 184 181 181 187 186 172
352 353 351 348 343 339 337 339 331 333 333 319 289 226 196 187 196 195 193 187 185 191 193 188 184 185 184 184 184 182 181 180 180 182 184 185 182 186 185 186 187 175 164
348 346 344 342 340 337 336 340 326 328 332 311 266 244 223 192 187 181 190 190 187 199 196 188 183 181 183 186 185 181 181 176 174 176 180 179 173 173 177 179 179 174 169
343 341 339 338 337 337 335 335 322 323 322 314 275 276 253 209 189 187 182 184 188 193 186 186 180 180 191 188 189 185 177 172 172 174 173 168 173 172 169 165 169 177 180
342 340 336 331 332 330 329 327 319 322 321 321 315 303 296 253 222 211 185 191 191 187 181 178 173 177 184 187 187 188 177 169 173 174 170 170 169 158 150 146 138 138 163
337 333 331 330 330 329 328 324 319 327 330 331 335 320 303 274 251 204 190 201 183 180 177 171 177 178 182 183 184 174 161 157 167 171 169 166 168 167 156 143 135 133 141
333 329 328 327 327 327 328 326 333 342 347 343 333 310 291 271 263 226 207 195 177 178 170 171 175 176 178 179 174 162 149 148 157 165 166 168 168 167 163 152 150 146 139
332 331 329 329 332 332 333 339 345 348 343 333 326 313 296 280 255 240 216 208 188 177 164 162 162 166 167 170 168 164 148 148 151 146 155 172 174 170 168 163 162 168 173
329 331 331 330 330 331 337 344 347 341 331 328 331 324 310 298 281 268 232 187 177 156 147 147 146 153 159 165 168 172 163 159 156 156 157 161 167 167 168 167 169 173 160
329 332 332 330 329 334 342 342 340 335 334 337 339 331 323 314 304 304 276 195 159 147 144 142 140 130 138 153 165 170 172 163 159 164 157 155 161 163 163 161 153 149 143
327 330 331 328 333 344 349 344 338 341 342 346 346 338 337 347 340 305 228 166 149 151 155 152 153 148 134 138 153 162 162 163 153 143 147 145 146 140 136 134 141 141 142
326 331 333 334 339 345 348 346 341 347 352 351 347 343 350 1 5 358 357 101 133 154 159 162 163 154 141 136 136 141 138 136 125 121 123 122 121 116 117 119 123 129 146
325 328 331 336 338 340 344 347 351 356 358 354 353 353 355 358 3 12 19 35 65 130 157 164 169 170 175 180 169 162 158 152 148 133 119 120 126 125 123 116 113 118 128
321 327 335 338 338 341 341 345 351 355 357 354 354 353 349 353 358 14 27 32 49 51 53 79 164 165 151 148 162 160 153 151 149 137 143 149 150 153 155 152 147 142 148